Location: Aufkirchen
(47.9603°N, 11.3653°E)
Time: 11:46:03
(UTC+01:00)

deb Explorer IX - Pass Details

Date: 03 December 2020
Orbit: 536 x 1104 km, 38.8° (Epoch: 19 January)

Event Time Altitude Azimuth Distance (km) Brightness Sun altitude
Rises 19:28:58 0° 265° (W) 3,432 ? -30.3°
Reaches altitude 10° 19:32:29 10° 247° (WSW) 2,367 ? -30.9°
Maximum altitude 19:35:59 17° 208° (SSW) 1,791 ? -31.4°
Enters shadow 19:36:31 17° 200° (SSW) 1,786 ? -31.5°
